• en Belgique
  • Liste des pays
  • À 7 jours
  • Température de l'eau
  • Carte satellitaire
  • Carte météo
  • Widgets météo
  • user-avatar
    Se connecter

    Météo par heure à Newcastle

    Ce jour, 24 Avril, Mardi

    Heure Température Précipitation Vent Pression Humidité
    00:00 +16°C° 0 mm 2 m/s 764 mmHg 91%
    01:00 +16°C° 0 mm 2 m/s 763 mmHg 93%
    02:00 +16°C° 0 mm 2 m/s 763 mmHg 94%
    03:00 +15°C° 0 mm 2 m/s 763 mmHg 95%
    04:00 +14°C° 0 mm 3 m/s 763 mmHg 96%
    05:00 +14°C° 0 mm 3 m/s 763 mmHg 96%
    06:00 +14°C° 0 mm 3 m/s 763 mmHg 96%
    07:00 +14°C° 0 mm 3 m/s 763 mmHg 95%
    08:00 +18°C° 0 mm 4 m/s 763 mmHg 83%
    09:00 +20°C° 0 mm 4 m/s 763 mmHg 72%
    10:00 +23°C° 0 mm 4 m/s 763 mmHg 59%
    11:00 +23°C° 0 mm 4 m/s 762 mmHg 55%
    12:00 +25°C° 0 mm 4 m/s 762 mmHg 51%
    13:00 +26°C° 0 mm 4 m/s 761 mmHg 47%
    14:00 +25°C° 0,1 mm 4 m/s 761 mmHg 51%
    15:00 +25°C° 0,1 mm 4 m/s 761 mmHg 54%
    16:00 +25°C° 0,1 mm 4 m/s 761 mmHg 57%
    17:00 +22°C° 0 mm 3 m/s 761 mmHg 67%
    18:00 +20°C° 0 mm 3 m/s 762 mmHg 78%
    19:00 +18°C° 0 mm 2 m/s 762 mmHg 88%
    20:00 +18°C° 0 mm 2 m/s 762 mmHg 91%
    21:00 +18°C° 0 mm 2 m/s 762 mmHg 94%
    22:00 +17°C° 0 mm 2 m/s 762 mmHg 96%
    23:00 +17°C° 0,1 mm 2 m/s 762 mmHg 96%

    Demain, 25 Avril, Mercredi

    Heure Température Précipitation Vent Pression Humidité
    00:00 +17°C° 0,1 mm 3 m/s 761 mmHg 97%
    01:00 +17°C° 0,1 mm 3 m/s 761 mmHg 97%
    02:00 +17°C° 0,2 mm 3 m/s 761 mmHg 97%
    03:00 +16°C° 0,2 mm 3 m/s 761 mmHg 96%
    04:00 +16°C° 0,2 mm 3 m/s 760 mmHg 96%
    05:00 +16°C° 0,3 mm 3 m/s 760 mmHg 95%
    06:00 +16°C° 0,3 mm 3 m/s 760 mmHg 94%
    07:00 +16°C° 0,3 mm 3 m/s 760 mmHg 92%
    08:00 +18°C° 0,4 mm 3 m/s 760 mmHg 84%
    09:00 +21°C° 0,4 mm 3 m/s 760 mmHg 76%
    10:00 +24°C° 0,4 mm 3 m/s 760 mmHg 67%
    11:00 +25°C° 0,2 mm 3 m/s 760 mmHg 64%
    12:00 +26°C° 0,2 mm 3 m/s 759 mmHg 60%
    13:00 +27°C° 0,2 mm 3 m/s 759 mmHg 57%
    14:00 +26°C° 0,9 mm 3 m/s 758 mmHg 62%
    15:00 +26°C° 0,9 mm 3 m/s 758 mmHg 67%
    16:00 +25°C° 0,9 mm 3 m/s 758 mmHg 72%
    17:00 +22°C° 0,6 mm 3 m/s 758 mmHg 80%
    18:00 +21°C° 0,6 mm 2 m/s 759 mmHg 88%
    19:00 +19°C° 0,6 mm 2 m/s 759 mmHg 96%
    20:00 +18°C° 0,1 mm 2 m/s 759 mmHg 96%
    21:00 +18°C° 0,1 mm 2 m/s 759 mmHg 97%
    22:00 +19°C° 0,1 mm 1 m/s 760 mmHg 98%
    23:00 +18°C° 0,1 mm 2 m/s 759 mmHg 97%

    Après-demain, 26 Avril, Jeudi

    Heure Température Précipitation Vent Pression Humidité
    00:00 +17°C° 0,1 mm 3 m/s 759 mmHg 97%
    01:00 +17°C° 0,1 mm 3 m/s 759 mmHg 97%
    02:00 +17°C° 0 mm 3 m/s 759 mmHg 95%
    03:00 +16°C° 0 mm 3 m/s 759 mmHg 94%
    04:00 +16°C° 0 mm 3 m/s 759 mmHg 92%
    05:00 +16°C° 0 mm 3 m/s 759 mmHg 90%
    06:00 +16°C° 0 mm 3 m/s 759 mmHg 88%
    07:00 +16°C° 0 mm 3 m/s 759 mmHg 85%
    08:00 +19°C° 0 mm 4 m/s 759 mmHg 75%
    09:00 +21°C° 0 mm 4 m/s 760 mmHg 64%
    10:00 +25°C° 0 mm 4 m/s 760 mmHg 53%
    11:00 +26°C° 0 mm 4 m/s 760 mmHg 48%
    12:00 +27°C° 0 mm 5 m/s 759 mmHg 43%
    13:00 +28°C° 0 mm 5 m/s 759 mmHg 38%
    14:00 +27°C° 0 mm 5 m/s 759 mmHg 43%
    15:00 +26°C° 0 mm 6 m/s 759 mmHg 48%
    16:00 +24°C° 0 mm 6 m/s 759 mmHg 53%
    17:00 +23°C° 0 mm 6 m/s 760 mmHg 64%
    18:00 +21°C° 0 mm 6 m/s 761 mmHg 75%
    19:00 +19°C° 0 mm 6 m/s 762 mmHg 86%
    20:00 +19°C° 0,1 mm 6 m/s 762 mmHg 86%
    21:00 +17°C° 0,1 mm 6 m/s 763 mmHg 87%
    22:00 +17°C° 0,1 mm 6 m/s 764 mmHg 88%
    23:00 +16°C° 0,2 mm 6 m/s 764 mmHg 89%

    27 Avril, Vendredi

    Heure Température Précipitation Vent Pression Humidité
    00:00 +16°C° 0,2 mm 6 m/s 764 mmHg 91%
    01:00 +15°C° 0,2 mm 6 m/s 764 mmHg 92%
    02:00 +15°C° 0,2 mm 6 m/s 764 mmHg 92%
    03:00 +15°C° 0,2 mm 6 m/s 764 mmHg 91%
    04:00 +15°C° 0,2 mm 6 m/s 765 mmHg 91%
    05:00 +15°C° 0,1 mm 6 m/s 765 mmHg 90%
    06:00 +15°C° 0,1 mm 6 m/s 766 mmHg 89%
    07:00 +15°C° 0,1 mm 6 m/s 766 mmHg 89%
    08:00 +16°C° 0,2 mm 6 m/s 766 mmHg 82%
    09:00 +17°C° 0,2 mm 6 m/s 767 mmHg 76%
    10:00 +19°C° 0,2 mm 6 m/s 767 mmHg 70%
    11:00 +20°C° 0,2 mm 6 m/s 767 mmHg 66%
    12:00 +20°C° 0,2 mm 6 m/s 766 mmHg 63%
    13:00 +21°C° 0,2 mm 6 m/s 766 mmHg 60%
    14:00 +20°C° 0,2 mm 6 m/s 766 mmHg 64%
    15:00 +19°C° 0,2 mm 6 m/s 766 mmHg 67%
    16:00 +19°C° 0,2 mm 5 m/s 766 mmHg 71%
    17:00 +17°C° 0,1 mm 5 m/s 767 mmHg 77%
    18:00 +16°C° 0,1 mm 5 m/s 767 mmHg 82%
    19:00 +15°C° 0,1 mm 5 m/s 768 mmHg 87%
    20:00 +14°C° 0,1 mm 4 m/s 768 mmHg 89%
    21:00 +14°C° 0,1 mm 4 m/s 768 mmHg 90%
    22:00 +14°C° 0,1 mm 4 m/s 768 mmHg 92%
    23:00 +13°C° 0,1 mm 4 m/s 768 mmHg 92%

    28 Avril, Samedi

    Heure Température Précipitation Vent Pression Humidité
    00:00 +13°C° 0,1 mm 4 m/s 768 mmHg 93%
    01:00 +13°C° 0,1 mm 4 m/s 768 mmHg 94%
    02:00 +13°C° 0,1 mm 4 m/s 768 mmHg 94%
    03:00 +12°C° 0,1 mm 4 m/s 767 mmHg 94%
    04:00 +12°C° 0,1 mm 4 m/s 767 mmHg 93%
    05:00 +12°C° 0,1 mm 4 m/s 767 mmHg 93%
    06:00 +12°C° 0,1 mm 4 m/s 768 mmHg 92%
    07:00 +12°C° 0,1 mm 4 m/s 768 mmHg 92%
    08:00 +14°C° 0,1 mm 4 m/s 768 mmHg 83%
    09:00 +17°C° 0,1 mm 4 m/s 768 mmHg 75%
    10:00 +20°C° 0,1 mm 4 m/s 768 mmHg 67%
    11:00 +20°C° 0,1 mm 4 m/s 768 mmHg 63%
    12:00 +21°C° 0,1 mm 4 m/s 767 mmHg 59%
    13:00 +22°C° 0,1 mm 4 m/s 766 mmHg 55%
    14:00 +22°C° 0,1 mm 4 m/s 766 mmHg 59%
    15:00 +21°C° 0,1 mm 4 m/s 766 mmHg 62%
    16:00 +21°C° 0,1 mm 4 m/s 766 mmHg 65%
    17:00 +19°C° 0,4 mm 4 m/s 767 mmHg 73%
    18:00 +18°C° 0,4 mm 3 m/s 767 mmHg 81%
    19:00 +16°C° 0,4 mm 3 m/s 767 mmHg 89%
    20:00 +16°C° 0,5 mm 3 m/s 767 mmHg 90%
    21:00 +16°C° 0,5 mm 3 m/s 767 mmHg 92%
    22:00 +16°C° 0,5 mm 3 m/s 768 mmHg 93%
    23:00 +14°C° 0,5 mm 3 m/s 767 mmHg 94%

    29 Avril, Dimanche

    Heure Température Précipitation Vent Pression Humidité
    00:00 +14°C° 0,5 mm 3 m/s 767 mmHg 95%
    01:00 +14°C° 0,5 mm 3 m/s 767 mmHg 96%
    02:00 +14°C° 0,4 mm 3 m/s 767 mmHg 96%
    03:00 +14°C° 0,4 mm 3 m/s 766 mmHg 97%
    04:00 +14°C° 0,4 mm 3 m/s 766 mmHg 97%
    05:00 +14°C° 0,2 mm 3 m/s 767 mmHg 97%
    06:00 +14°C° 0,2 mm 3 m/s 767 mmHg 97%
    07:00 +13°C° 0,2 mm 3 m/s 767 mmHg 97%
    08:00 +15°C° 0,1 mm 4 m/s 767 mmHg 90%
    09:00 +18°C° 0,1 mm 4 m/s 767 mmHg 82%
    10:00 +19°C° 0,1 mm 4 m/s 768 mmHg 75%
    11:00 +20°C° 0,1 mm 4 m/s 767 mmHg 69%
    12:00 +21°C° 0,1 mm 4 m/s 767 mmHg 63%
    13:00 +23°C° 0,1 mm 4 m/s 766 mmHg 57%
    14:00 +22°C° 0,1 mm 4 m/s 766 mmHg 60%
    15:00 +22°C° 0,1 mm 4 m/s 766 mmHg 62%
    16:00 +21°C° 0,1 mm 5 m/s 765 mmHg 64%
    17:00 +19°C° 0,2 mm 4 m/s 766 mmHg 73%
    18:00 +18°C° 0,2 mm 4 m/s 766 mmHg 81%
    19:00 +16°C° 0,2 mm 3 m/s 767 mmHg 90%
    20:00 +16°C° 0 mm 3 m/s 767 mmHg 90%
    21:00 +14°C° 0 mm 3 m/s 767 mmHg 90%
    22:00 +15°C° 0 mm 2 m/s 767 mmHg 91%
    23:00 +14°C° 0 mm 3 m/s 767 mmHg 92%
    Voir plus